Weather History for Fort Polk, LA

Change the Weather History Date:

Friday, June 14, 2013

  Actual Average (KPOE) Record (KPOE)
Temperature  
Mean Temperature 86 °F -  
Max Temperature 97 °F 86 °F 99 °F (2011)
Min Temperature 75 °F 68 °F 66 °F (2004)
Cooling Degree Days 21    
Growing Degree Days 36 (Base 50)    
Moisture  
Dew Point 74 °F    
Average Humidity 69    
Maximum Humidity 94    
Minimum Humidity 46    
Precipitation  
Precipitation 0.00 in - - ()
Sea Level Pressure  
Sea Level Pressure 29.98 in    
Wind  
Wind Speed 1 mph (NNW)    
Max Wind Speed 6 mph    
Max Gust Speed -    
Visibility 9 miles    
Events Thunderstorm    
Averages and records for this station are not official NWS values.
T = Trace of Precipitation, MM = Missing Value Source: NWS Daily Summary

Daily Weather History Graph

Daily Weather History Graph

Search for Another Location

Airport:

Trip Planner

Search our weather history database for the weather conditions in past years. The results will help you decide how hot, cold, wet, or windy it might be!

Date:

Astronomy

Jun. 14, 2013 Rise Set
Actual Time 6:07 AM CDT 8:16 PM CDT
Civil Twilight 5:39 AM CDT 8:44 PM CDT
Nautical Twilight 5:05 AM CDT 9:18 PM CDT
Astronomical Twilight 4:29 AM CDT 9:54 PM CDT
Moon 11:24 AM CDT (6/14) No Moon Set
Length of Visible Light 15h 04m
Length of Day
14h 08m
Waxing Crescent, 30% of the Moon is Illuminated
Jun 14
Waxing Crescent
Jun 16
First Quarter
Jun 23
Full
Jun 29
Last Quarter
Jul 8
New

Hourly Weather History & Observations

Time (CDT) Temp. Heat Index Dew Point Humidity Pressure Visibility Wind Dir Wind Speed Gust Speed Precip Events Conditions
12:54 AM 75.0 °F - 72.0 °F 90% 30.00 in 9.0 mi Calm Calm - N/A   Clear
1:54 AM 75.9 °F - 72.0 °F 87% 29.98 in 10.0 mi Calm Calm - N/A   Clear
2:54 AM 75.0 °F - 72.0 °F 90% 29.99 in 9.0 mi Calm Calm - N/A   Clear
3:54 AM 75.9 °F - 73.0 °F 91% 29.97 in 7.0 mi Calm Calm - N/A   Clear
4:54 AM 75.9 °F - 73.0 °F 91% 30.00 in 4.0 mi Calm Calm - N/A   Clear
5:54 AM 75.9 °F - 73.9 °F 94% 30.00 in 4.0 mi Calm Calm - N/A   Clear
6:54 AM 77.0 °F - 73.9 °F 90% 30.01 in 5.0 mi Calm Calm - N/A   Clear
7:54 AM 82.0 °F 89.4 °F 75.9 °F 82% 30.01 in 10.0 mi Calm Calm - N/A   Clear
8:54 AM 84.9 °F 93.3 °F 75.0 °F 72% 30.02 in 10.0 mi Variable 3.5 mph - N/A   Clear
9:54 AM 88.0 °F 97.5 °F 75.0 °F 65% 30.02 in 10.0 mi Variable 4.6 mph - N/A   Clear
10:54 AM 90.0 °F 100.2 °F 75.0 °F 61% 30.02 in 10.0 mi Calm Calm - N/A   Partly Cloudy
11:54 AM 93.0 °F 103.2 °F 73.9 °F 54% 30.01 in 10.0 mi Calm Calm - N/A   Partly Cloudy
12:54 PM 95.0 °F 106.7 °F 75.0 °F 52% 29.99 in 10.0 mi NNW 4.6 mph - N/A   Scattered Clouds
1:54 PM 97.0 °F 107.7 °F 73.9 °F 47% 29.98 in 10.0 mi Variable 4.6 mph - N/A   Partly Cloudy
2:54 PM 96.1 °F 107.1 °F 73.9 °F 49% 29.96 in 10.0 mi Calm Calm - N/A   Mostly Cloudy
3:54 PM 96.1 °F 104.9 °F 72.0 °F 46% 29.95 in 10.0 mi Calm Calm - N/A   Partly Cloudy
4:54 PM 93.0 °F 105.3 °F 75.9 °F 57% 29.94 in 10.0 mi Calm Calm - N/A   Partly Cloudy
5:54 PM 95.0 °F 108.2 °F 75.9 °F 54% 29.93 in 10.0 mi Variable 4.6 mph - N/A   Scattered Clouds
6:08 PM 93.2 °F 105.0 °F 75.2 °F 56% 29.86 in 10.0 mi Variable 5.8 mph - N/A Thunderstorm Thunderstorm
6:36 PM 93.2 °F 105.0 °F 75.2 °F 56% 29.86 in 10.0 mi Variable 5.8 mph - N/A   Mostly Cloudy
6:54 PM 90.0 °F 100.2 °F 75.0 °F 61% 29.92 in 10.0 mi Variable 4.6 mph - N/A   Mostly Cloudy
7:54 PM 88.0 °F 96.5 °F 73.9 °F 63% 29.96 in 10.0 mi Calm Calm - N/A   Clear
8:54 PM 84.9 °F 91.4 °F 73.0 °F 67% 29.97 in 10.0 mi Variable 3.5 mph - N/A   Clear
9:54 PM 84.0 °F 89.6 °F 72.0 °F 67% 29.99 in 10.0 mi Variable 4.6 mph - N/A   Clear
10:54 PM 81.0 °F 84.9 °F 71.1 °F 72% 30.04 in 10.0 mi Calm Calm - N/A   Clear
11:54 PM 79.0 °F - 71.1 °F 77% 30.03 in 10.0 mi Calm Calm - N/A   Clear